Location: Unspecified
(0.0000°N, 0.0000°E)
Time: 17:35:01
(UTC+00:00)

Amateur Radio Satellites - All Passes

Search period start: 24 May 2017 17:05
Search period end: 25 May 2017 17:05
Location: Unspecified, 0.0000°N, 0.0000°E

Satellite Date Start Highest point End Downlink Frequencies (MHz)
Time Altitude Azimuth
DOVE 4 24 May 17:05:23 17:10:17 47° 79° (E) 17:14:53 437.250
CUTE-I 24 May 17:07:06 17:10:52 20° 77° (ENE) 17:14:36 437.470
XW-2C 24 May 17:14:10 17:17:10 23° 79° (ENE) 17:20:09 145.795 - 145.815
XW-2F 24 May 17:15:13 17:18:10 22° 79° (ENE) 17:21:06 145.980 - 146.000
NUDT-PHONESAT 24 May 17:22:30 17:25:20 21° 79° (ENE) 17:28:10 437.300
KAITUO 1B 24 May 17:27:02 17:30:10 26° 79° (ENE) 17:33:18 145.475/437.950
STARS 24 May 17:36:37 17:40:13 25° 282° (WNW) 17:43:50 437.465
NO-84 24 May 17:46:43 17:48:16 13° 56° (ENE) 17:49:47 435.350 FM
LilacSat-2 24 May 17:48:29 17:52:17 86° 256° (WSW) 17:56:05 437.200
Tancredo 1 24 May 17:59:20 18:02:19 50° 305° (NW) 18:05:18 437.200
PCSat 24 May 18:02:03 18:07:25 68° 289° (WNW) 18:12:46 145.827
SRMSAT 24 May 18:05:17 18:08:10 14° 191° (S) 18:11:04 437.500
ISS 24 May 18:05:40 18:08:58 86° 127° (SE) 18:12:14 437.550
STRAND 1 24 May 18:22:07 18:26:17 25° 103° (ESE) 18:30:27 437.568
XW-2D 24 May 18:26:51 18:29:43 21° 259° (WSW) 18:32:36 145.860 - 145.880
CUTE 1.7 + AOD 2 24 May 18:28:47 18:32:14 24° 79° (ENE) 18:35:41 437.475
XW-2A 24 May 18:33:10 18:35:39 20° 79° (E) 18:38:07 145.665 - 145.685
HO-68 24 May 18:34:57 18:41:38 43° 76° (ENE) 18:48:18 435.675
XW-2B 24 May 18:35:08 18:37:35 17° 259° (WSW) 18:40:02 145.730 - 145.750
CUBEBUG 2 24 May 18:41:59 18:43:56 13° 79° (E) 18:45:53 437.445
CUTE-I 24 May 18:46:13 18:50:37 27° 257° (WSW) 18:55:01 437.470
XW-2F 24 May 18:51:38 18:52:01 10° 259° (WSW) 18:52:25 145.980 - 146.000
AAUSAT CUBESAT 2 24 May 18:56:35 18:58:17 12° 78° (ENE) 18:59:59 437.432
UWE-3 24 May 18:58:24 18:59:36 11° 78° (ENE) 19:00:46 435.000/436.395/437.385
SEEDS 24 May 19:22:06 19:26:20 87° 79° (E) 19:30:34 437.485
JUGNU 24 May 19:22:55 19:25:56 14° 168° (SSE) 19:28:56 437.505
NO-84 24 May 19:24:40 19:25:30 11° 238° (WSW) 19:26:20 435.350 FM
Oscar 11 24 May 19:39:50 19:42:24 15° 78° (ENE) 19:44:57 .
STRAND 1 24 May 20:01:32 20:05:11 20° 283° (WNW) 20:08:51 437.568
AO-73 24 May 20:02:07 20:06:02 42° 78° (ENE) 20:09:57 145.935
CUTE 1.7 + AOD 2 24 May 20:05:51 20:07:47 13° 258° (WSW) 20:09:44 437.475
ZACube-1 24 May 20:14:23 20:18:30 79° 80° (E) 20:22:39 437.345
CUBEBUG 2 24 May 20:17:05 20:20:19 22° 258° (WSW) 20:23:30 437.445
HO-68 24 May 20:24:00 20:29:00 21° 255° (WSW) 20:34:02 435.675
AAUSAT CUBESAT 2 24 May 20:30:03 20:33:27 24° 258° (WSW) 20:36:52 437.432
UWE-3 24 May 20:32:22 20:35:48 25° 258° (WSW) 20:39:12 435.000/436.395/437.385
M-CUBED/EXP-1 PRIME 24 May 20:38:25 20:40:57 21° 284° (WNW) 20:43:35 437.505
UNISAT 6 24 May 21:02:19 21:06:11 25° 102° (ESE) 21:10:02 437.425
JUGNU 24 May 21:10:22 21:15:29 31° 161° (SSE) 21:20:37 437.505
DELFI C3 24 May 21:10:23 21:14:21 63° 78° (ENE) 21:18:18 145.870
Oscar 11 24 May 21:14:59 21:18:15 21° 258° (WSW) 21:21:31 .
SO-50 24 May 21:15:26 21:19:53 44° 292° (WNW) 21:24:17 436.795
FO-29 24 May 21:40:11 21:47:25 80° 104° (ESE) 21:55:15 435.910
SRMSAT 24 May 21:46:02 21:48:48 13° 170° (S) 21:51:34 437.500
EO-88 24 May 21:49:45 21:53:12 41° 259° (WSW) 21:56:39 145.990 - 145.960
PRISM 24 May 21:54:01 21:57:46 38° 282° (WNW) 22:01:33 437.425
TIGRISAT 24 May 22:07:10 22:11:38 45° 282° (WNW) 22:16:07 435.000
UNISAT 6 24 May 22:39:45 22:42:36 16° 282° (WNW) 22:45:27 437.425
LO-87 24 May 22:40:39 22:44:16 81° 79° (ENE) 22:47:49 145.935 - 145.965
ESTCUBE 1 24 May 22:43:17 22:47:29 37° 78° (ENE) 22:51:40 437.505/2401.250
NANOSAT C BR1 24 May 22:48:00 22:51:00 19° 102° (ESE) 22:54:01 145.865
POLYITAN 1 24 May 22:49:54 22:53:17 23° 102° (ESE) 22:56:42 437.675
QB50P2 24 May 22:57:56 23:01:47 33° 102° (ESE) 23:05:40 145.880/145.840
AIST 2D 24 May 22:58:39 23:02:11 88° 92° (E) 23:05:44 435.315
JUGNU 24 May 22:58:42 23:04:36 83° 159° (SSE) 23:10:32 437.505
DUCHIFAT 1 24 May 22:59:35 23:03:01 24° 102° (ESE) 23:06:27 145.980
BUGSAT 1 24 May 23:28:31 23:30:34 13° 102° (ESE) 23:32:36 437.445
FO-29 24 May 23:30:57 23:32:15 10° 282° (WNW) 23:33:33 435.910
SRMSAT 24 May 23:33:38 23:38:39 27° 162° (SSE) 23:43:39 437.500
EO-79 24 May 23:35:30 23:39:44 73° 282° (WNW) 23:44:01 145.935-145.965
VELOX 1 24 May 23:49:05 23:53:26 54° 78° (ENE) 23:57:46 145.980
SPROUT 25 May 00:00:49 00:05:04 84° 80° (E) 00:09:18 437.525
50 SAT 25 May 00:11:35 00:14:59 49° 78° (ENE) 00:18:20 437.505
NANOSAT C BR1 25 May 00:23:41 00:26:27 17° 282° (WNW) 00:29:13 145.865
RS-15 25 May 00:24:29 00:35:57 72° 110° (ESE) 00:47:59 29.354- 29.394
YUBILEINY 25 May 00:24:40 00:33:21 75° 93° (E) 00:42:01 435.215
POLYITAN 1 25 May 00:26:33 00:28:48 14° 282° (WNW) 00:31:03 437.675
UKube-1 25 May 00:29:34 00:33:24 31° 78° (ENE) 00:37:12 .
DX 1 25 May 00:32:06 00:36:25 57° 78° (ENE) 00:40:41 434.975-435.025
DUCHIFAT 1 25 May 00:36:24 00:38:24 13° 282° (WNW) 00:40:25 145.980
JUGNU 25 May 00:48:18 00:53:41 36° 341° (NNW) 00:59:07 437.505
Gurwin Techsat 1B 25 May 00:49:03 00:53:19 25° 103° (ESE) 00:57:35 435.225
BUGSAT 1 25 May 01:02:17 01:05:37 23° 282° (WNW) 01:09:01 437.445
SRMSAT 25 May 01:22:02 01:28:01 70° 159° (SSE) 01:34:01 437.500
Oscar 19 25 May 01:28:30 01:33:29 54° 282° (WNW) 01:38:28 437.125/150
ITUPSAT 1 25 May 01:50:02 01:53:07 17° 77° (ENE) 01:56:12 437.325
O/OREOS (USA 219) 25 May 02:04:03 02:07:45 24° 104° (ESE) 02:11:25 437.305
UKube-1 25 May 02:08:27 02:09:08 10° 257° (WSW) 02:09:48 .
BEESAT 25 May 02:23:31 02:28:07 51° 78° (ENE) 02:32:42 436.000
ITAMSAT 1 25 May 02:25:48 02:30:16 29° 103° (ESE) 02:34:46 435.822/435.867
MOZHAYETS 4 25 May 02:25:49 02:29:29 24° 78° (ENE) 02:33:09
YUBILEINY 25 May 02:27:34 02:29:45 11° 273° (W) 02:31:57 435.215
Gurwin Techsat 1B 25 May 02:29:04 02:32:59 21° 283° (WNW) 02:36:55 435.225
JUGNU 25 May 02:39:35 02:43:11 16° 347° (NNW) 02:46:48 437.505
RS-15 25 May 02:40:50 02:48:16 19° 294° (WNW) 02:55:57 29.354- 29.394
AO-7 25 May 02:46:11 02:54:14 53° 106° (ESE) 03:02:18 .
AO-85 25 May 02:53:10 02:57:55 76° 112° (ESE) 03:02:18 145.980
SRMSAT 25 May 03:11:35 03:17:16 43° 340° (NNW) 03:22:55 437.500
ITUPSAT 1 25 May 03:26:52 03:30:40 24° 257° (WSW) 03:34:28 437.325
KKS-1 25 May 03:35:07 03:38:08 18° 78° (ENE) 03:41:08 437.445
BEESAT 3 25 May 03:39:32 03:43:20 66° 112° (ESE) 03:47:12 437.485
O/OREOS (USA 219) 25 May 03:44:14 03:46:52 15° 285° (WNW) 03:49:29 437.305
MOZHAYETS 4 25 May 04:03:40 04:06:22 16° 258° (WSW) 04:09:04
ITAMSAT 1 25 May 04:06:06 04:09:27 17° 283° (WNW) 04:12:50 435.822/435.867
STARS 25 May 04:11:52 04:14:59 19° 78° (ENE) 04:18:05 437.465
JUGNU 25 May 04:32:49 04:33:13 10° 357° (N) 04:33:39 437.505
AO-7 25 May 04:40:55 04:46:35 20° 287° (WNW) 04:52:19 .
CUBESAT XI-V 25 May 04:42:20 04:46:45 41° 258° (WSW) 04:51:10 437.345
BEESAT 2 25 May 04:52:15 04:55:51 37° 292° (WNW) 04:59:29 435.950
PCSat 25 May 04:56:06 05:00:26 25° 70° (ENE) 05:04:45 145.827
XW-2B 25 May 04:56:07 04:57:17 11° 102° (ESE) 04:58:27 145.730 - 145.750
SRMSAT 25 May 05:02:48 05:06:50 18° 345° (NNW) 05:10:52 437.500
XW-2C 25 May 05:08:07 05:10:50 18° 101° (ESE) 05:13:31 145.795 - 145.815
XW-2F 25 May 05:08:47 05:11:22 18° 101° (ESE) 05:13:58 145.980 - 146.000
KKS-1 25 May 05:11:12 05:14:25 20° 257° (WSW) 05:17:38 437.445
NUDT-PHONESAT 25 May 05:14:24 05:16:46 16° 101° (ESE) 05:19:06 437.300
KAITUO 1B 25 May 05:19:37 05:22:25 20° 101° (E) 05:25:12 145.475/437.950
DOVE 4 25 May 05:25:31 05:29:50 84° 101° (E) 05:34:28 437.250
Tancredo 1 25 May 05:27:59 05:31:00 68° 55° (NE) 05:34:03 437.200
NO-84 25 May 05:28:48 05:31:48 19° 121° (ESE) 05:34:53 435.350 FM
ISS 25 May 05:39:48 05:42:56 47° 55° (NE) 05:46:05 437.550
LilacSat-2 25 May 05:42:45 05:46:36 76° 102° (ESE) 05:50:25 437.200
CUTE-I 25 May 05:44:48 05:50:01 58° 102° (ESE) 05:55:19 437.470
STARS 25 May 05:48:06 05:51:03 18° 257° (WSW) 05:53:59 437.465
XW-2A 25 May 06:17:26 06:18:13 11° 101° (ESE) 06:18:59 145.665 - 145.685
XW-2D 25 May 06:20:06 06:23:20 26° 281° (W) 06:26:33 145.860 - 145.880
JUGNU 25 May 06:21:30 06:23:27 12° 7° (N) 06:25:24 437.505
HO-68 25 May 06:26:46 06:33:11 36° 105° (ESE) 06:39:36 435.675
XW-2B 25 May 06:28:17 06:31:12 21° 281° (WNW) 06:34:08 145.730 - 145.750
CUTE 1.7 + AOD 2 25 May 06:34:47 06:38:28 29° 101° (ESE) 06:42:09 437.475
PCSat 25 May 06:39:29 06:43:33 22° 250° (WSW) 06:47:37 145.827
XW-2C 25 May 06:42:57 06:44:45 13° 281° (WNW) 06:46:32 145.795 - 145.815
XW-2F 25 May 06:43:20 06:45:14 13° 281° (WNW) 06:47:08 145.980 - 146.000
NUDT-PHONESAT 25 May 06:48:21 06:50:23 14° 281° (WNW) 06:52:27 437.300
CUBEBUG 2 25 May 06:52:19 06:56:03 23° 102° (ESE) 06:59:49 437.445
STRAND 1 25 May 06:53:53 06:58:56 63° 78° (ENE) 07:03:56 437.568
KAITUO 1B 25 May 06:54:53 06:56:09 11° 281° (WNW) 06:57:24 145.475/437.950
SRMSAT 25 May 06:55:50 06:56:58 10° 355° (N) 06:58:05 437.500
AAUSAT CUBESAT 2 25 May 06:59:37 07:01:37 13° 102° (ESE) 07:03:37 437.432
M-CUBED/EXP-1 PRIME 25 May 07:04:17 07:06:18 13° 75° (ENE) 07:08:18 437.505
NO-84 25 May 07:05:46 07:09:12 23° 303° (WNW) 07:12:43 435.350 FM
UWE-3 25 May 07:07:15 07:10:35 19° 102° (ESE) 07:13:54 435.000/436.395/437.385
SEEDS 25 May 07:27:16 07:31:26 78° 282° (WNW) 07:35:36 437.485
Oscar 11 25 May 07:47:48 07:51:01 20° 102° (ESE) 07:54:13 .
XW-2A 25 May 07:48:23 07:50:40 17° 281° (WNW) 07:52:59 145.665 - 145.685
SO-50 25 May 07:49:14 07:52:05 16° 68° (ENE) 07:54:57 436.795
JUGNU 25 May 08:08:49 08:13:19 22° 16° (NNE) 08:17:48 437.505
AO-73 25 May 08:10:54 08:15:25 63° 101° (ESE) 08:19:55 145.935
CUTE 1.7 + AOD 2 25 May 08:13:44 08:14:00 10° 282° (WNW) 08:14:18 437.475
HO-68 25 May 08:14:59 08:20:34 25° 285° (WNW) 08:26:11 435.675
ZACube-1 25 May 08:23:40 08:28:14 75° 281° (W) 08:32:48 437.345
CUBEBUG 2 25 May 08:29:14 08:32:22 18° 282° (WNW) 08:35:34 437.445
AAUSAT CUBESAT 2 25 May 08:33:40 08:36:47 21° 282° (WNW) 08:39:57 437.432
M-CUBED/EXP-1 PRIME 25 May 08:36:21 08:40:28 32° 254° (WSW) 08:44:28 437.505
UWE-3 25 May 08:43:16 08:46:44 21° 281° (WNW) 08:50:13 435.000/436.395/437.385
SRMSAT 25 May 08:46:05 08:47:21 11° 6° (N) 08:48:36 437.500
TIGRISAT 25 May 08:47:05 08:48:18 11° 78° (ENE) 08:49:32 435.000
DELFI C3 25 May 09:08:38 09:12:28 58° 102° (ESE) 09:16:19 145.870
UNISAT 6 25 May 09:15:33 09:19:25 34° 79° (ENE) 09:23:17 437.425
FO-29 25 May 09:16:12 09:21:22 37° 79° (ENE) 09:26:10 435.910
Oscar 11 25 May 09:24:12 09:26:52 16° 282° (WNW) 09:29:32 .
SO-50 25 May 09:28:37 09:32:17 24° 248° (WSW) 09:35:59 436.795
EO-88 25 May 09:39:18 09:42:56 64° 281° (WNW) 09:46:34 145.990 - 145.960
PRISM 25 May 09:56:33 10:00:23 36° 258° (WSW) 10:04:11 437.425
JUGNU 25 May 09:56:48 10:02:38 53° 21° (NNE) 10:08:25 437.505
TIGRISAT 25 May 10:21:08 10:24:44 27° 258° (WSW) 10:28:19 435.000
LO-87 25 May 10:28:34 10:32:00 47° 101° (ESE) 10:35:28 145.935 - 145.965
SRMSAT 25 May 10:33:20 10:37:26 19° 15° (NNE) 10:41:31 437.500
AIST 2D 25 May 10:44:49 10:48:11 46° 79° (E) 10:51:32 435.315
NANOSAT C BR1 25 May 10:53:26 10:56:41 22° 78° (ENE) 10:59:54 145.865
POLYITAN 1 25 May 10:55:57 10:59:31 27° 78° (ENE) 11:03:03 437.675
ESTCUBE 1 25 May 10:57:03 11:01:27 59° 102° (ESE) 11:05:51 437.505/2401.250
FO-29 25 May 11:03:37 11:06:04 13° 255° (WSW) 11:08:27 435.910
QB50P2 25 May 11:04:06 11:08:04 41° 78° (ENE) 11:11:59 145.880/145.840
DUCHIFAT 1 25 May 11:04:48 11:08:22 28° 78° (ENE) 11:11:54 145.980
YUBILEINY 25 May 11:05:27 11:10:26 16° 87° (E) 11:15:23 435.215
BUGSAT 1 25 May 11:31:36 11:33:39 14° 78° (ENE) 11:35:41 437.445
EO-79 25 May 11:41:42 11:45:49 58° 258° (WSW) 11:49:54 145.935-145.965
JUGNU 25 May 11:45:51 11:51:42 56° 201° (SSW) 11:57:30 437.505
50 SAT 25 May 11:55:51 11:58:39 24° 102° (ESE) 12:01:27 437.505
VELOX 1 25 May 12:00:24 12:04:46 80° 103° (ESE) 12:09:10 145.980
SPROUT 25 May 12:07:43 12:12:00 77° 281° (WNW) 12:16:18 437.525
RS-15 25 May 12:07:47 12:19:13 62° 69° (ENE) 12:30:05 29.354- 29.394
SRMSAT 25 May 12:21:19 12:26:57 45° 20° (NNE) 12:32:35 437.500
Oscar 19 25 May 12:24:02 12:28:07 23° 77° (ENE) 12:32:11 437.125/150
NANOSAT C BR1 25 May 12:30:01 12:32:07 14° 258° (WSW) 12:34:13 145.865
POLYITAN 1 25 May 12:33:59 12:35:01 11° 258° (WSW) 12:36:03 437.675
UKube-1 25 May 12:37:37 12:41:39 40° 102° (ESE) 12:45:42 .
DX 1 25 May 12:41:32 12:45:50 80° 102° (ESE) 12:50:11 434.975-435.025
DUCHIFAT 1 25 May 12:43:00 12:43:45 10° 258° (WSW) 12:44:30 145.980
YUBILEINY 25 May 12:58:12 13:06:49 60° 267° (W) 13:15:28 435.215
BUGSAT 1 25 May 13:05:45 13:08:45 20° 258° (WSW) 13:11:43 437.445
Gurwin Techsat 1B 25 May 13:26:33 13:31:51 72° 77° (ENE) 13:37:08 435.225
JUGNU 25 May 13:36:25 13:40:57 22° 197° (SSW) 13:45:28 437.505
Oscar 19 25 May 14:03:17 14:07:09 21° 257° (WSW) 14:11:01 437.125/150
SRMSAT 25 May 14:10:17 14:16:10 66° 201° (SSW) 14:22:03 437.500
ITUPSAT 1 25 May 14:10:59 14:15:17 33° 102° (ESE) 14:19:36 437.325
O/OREOS (USA 219) 25 May 14:14:32 14:18:42 39° 76° (ENE) 14:22:52 437.305
RS-15 25 May 14:23:11 14:31:06 22° 248° (WSW) 14:38:52 29.354- 29.394
MOZHAYETS 4 25 May 14:41:47 14:46:07 40° 102° (ESE) 14:50:26
BEESAT 25 May 14:45:06 14:49:52 82° 283° (WNW) 14:54:40 436.000
ITAMSAT 1 25 May 15:00:09 15:05:20 78° 77° (ENE) 15:10:29 435.822/435.867
AO-85 25 May 15:04:56 15:09:21 59° 248° (WSW) 15:14:08 145.980
AO-7 25 May 15:12:22 15:20:41 84° 74° (ENE) 15:28:58 .
CUBESAT XI-V 25 May 15:25:00 15:27:50 16° 102° (ESE) 15:30:40 437.345
JUGNU 25 May 15:28:51 15:30:44 11° 188° (S) 15:32:37 437.505
BEESAT 3 25 May 15:31:15 15:35:08 67° 68° (ENE) 15:38:58 437.485
KKS-1 25 May 15:46:42 15:50:24 26° 102° (ESE) 15:54:08 437.445
ITUPSAT 1 25 May 15:50:51 15:52:50 12° 283° (WNW) 15:54:49 437.325
SRMSAT 25 May 16:00:43 16:05:32 25° 197° (SSW) 16:10:21 437.500
STARS 25 May 16:21:53 16:25:35 27° 102° (ESE) 16:29:19 437.465
BEESAT 2 25 May 16:45:15 16:48:55 36° 248° (WSW) 16:52:33 435.950
CUTE-I 25 May 16:48:53 16:49:42 10° 77° (ENE) 16:50:30 437.470
Tancredo 1 25 May 16:57:01 16:59:47 30° 125° (SE) 17:02:31 437.200
